Volver al catálogo

TIANMU-1 07

ActivoCienciaSSO
NORAD 57399·PAYLOAD·🇨🇳 China

Lanzado Jul 20, 2023 desde Jiuquan Satellite Launch Center

Loading…

Próximos Pases (próximas 24 horas)

TLE

ActualizadoSource: Space-Track

Época: Sep 14, 2026, 14:51 UTC

1 57399U 23101A   26257.61926958  .00004729  00000-0  16189-3 0  9998
2 57399  97.2506 306.2482 0003208 144.6000 215.5455 15.30696415175322

Sigue TIANMU-1 07 en tiempo real con AllMySat

Download on the App Store